355  
ASUS44 KLUB 242110  
RWRLUB  
WEST TEXAS WEATHER ROUNDUP  
NATIONAL WEATHER SERVICE LUBBOCK TX  
300 PM CST WED FEB 24 2021  
 
NOTE: "FAIR" INDICATES FEW OR NO CLOUDS BELOW 12,000 FEET WITH NO  
SIGNIFICANT WEATHER AND/OR S TO VISIBILITY
.  
 
TXZ004-006>008-010-012-014-016-OKZ002-242200-  
TEXAS PANHANDLE/OKLAHOMA PANHANDLE  
 
CITY SKY/WX TMP DP RH WIND PRES REMARKS
 
AMARILLO SUNNY 52 13 21 NE9 30.13F  
BORGER SUNNY 56 10 16 NE14 30.15F  
CANADIAN SUNNY 53 13 20 NE10G16 30.16S  
DALHART SUNNY 49 13 23 E15 30.15F  
DUMAS SUNNY 50 10 20 E14 30.15F  
GUYMON SUNNY 52 11 19 VRB6 30.15F  
HEREFORD SUNNY 55 15 20 E9G16 30.13F  
PAMPA SUNNY 54 12 18 NE12 30.16F  
PERRYTON SUNNY 51 10 18 N6 30.16R  

 
 
TXZ026-029-035-045-048-242200-  
SOUTHERN PANHANDLE/SOUTH PLAINS/ROLLING PLAINS  
 
CITY SKY/WX TMP DP RH WIND PRES REMARKS
 
CHILDRESS SUNNY 60 22 23 NE15G22 30.13F  
SEMINOLE SUNNY 60 27 27 E10 30.14F  
LUBBOCK MOSUNNY 59 22 24 E13 30.10F  
PLAINVIEW SUNNY 55 18 23 E9G22 30.12F  
SNYDER SUNNY 61 30 31 NE13 30.10S  

 
 
TXZ052-054-060>062-072-078-127-140-154-169-242200-  
PERMIAN BASIN/CONCHO VALLEY/BIG COUNTRY/EDWARDS PLATEAU  
 
CITY SKY/WX TMP DP RH WIND PRES REMARKS
 
ABILENE SUNNY 65 34 31 N16 30.07F  
BIG SPRING SUNNY 64 29 27 NE8G16 30.08S  
BRADY SUNNY 70 30 23 N13 30.03F  
BROWNWOOD SUNNY 70 34 26 N12G21 30.05S  
JUNCTION SUNNY 80 50 34 N8 30.00F  
MIDLAND SUNNY 64 27 24 VRB3 30.08F  
ODESSA SUNNY 65 26 23 E3 30.09F  
SAN ANGELO SUNNY 70 33 25 SE3 30.05F  
SONORA SUNNY 73 37 27 N8 30.08S  
SWEETWATER SUNNY 63 31 29 N17 30.10F  
WINK SUNNY 66 25 21 S5 30.07F  

 
 
TXZ055-058-074-075-080-082-242200-  
FAR WEST/SOUTHWEST MOUNTAINS/TRANS PECOS  
 
CITY SKY/WX TMP DP RH WIND PRES REMARKS
 
ALPINE MOSUNNY 67 18 15 NE10 30.15F  
DRYDEN N/A 78 31 17 MISG 30.02F  
EL PASO MOSUNNY 74 4 6 SW9 30.01F  
FORT STOCKTON SUNNY 66 25 21 N12 30.08F  
GUADALUPE PASS SUNNY 55 16 21 NE12 30.12F  
MARFA SUNNY 75 8 7 SW10G20 30.09F  
PECOS SUNNY 64 25 22 CALM 30.09F  
PRESIDIO FAIR 79 19 10 CALM 30.02F  

 
 
TXZ014-016-019-021>030-083-242200  
TEXAS TECH WEST TEXAS MESONET/TEXAS PANHANDLE/NORTHERN SOUTH PLAINS  
 
CITY SKY/WX TMP DP RH WIND PRES REMARKS
 
ABERNATHY 5ENE N/A 57 20 24 E12 30.12F  
AMARILLO 9NNE N/A 52 13 21 E7 30.15F  
AMARILLO 7SSE N/A 53 15 21 NE10 30.16F  
AMHERST 1NE N/A 56 21 25 E9 30.12F  
BOOTLEG 11WNW N/A 51 13 22 E10 30.15F  
CANADIAN 6E N/A 54 14 20 NE10 30.15S  
CAPROCK CYN SP N/A 57 15 19 E13G20 30.14F  
CHILDRESS 2NNE N/A 60 23 24 NE13 30.13F  
CLARENDON 2WSW N/A 56 16 20 NE14 30.14F  
CLAUDE 12SW N/A 53 15 22 E8 30.14F  
DIMMITT 2NE N/A 54 14 20 E12 30.13S  
FLOYDADA 2NNE N/A 56 17 20 NE12 30.12F  
FRIONA 2NE N/A 53 14 21 E8 30.13F  
GOODLETT 3W N/A 60 24 25 N13 30.12S  
HART 3N N/A 55 15 20 E12 30.13F  
HEREFORD 2NW N/A 53 15 23 E9 30.13F  
MCLEAN 1E N/A 54 17 23 NE10 30.14S  
MEMPHIS 1NE N/A 58 19 21 NE13 30.14F  
MULESHOE 2SSW N/A 56 17 22 E13 30.12F  
OLTON 6S N/A 56 21 26 E10 30.12F  
PALO DURO SP N/A 53 15 22 E8 30.16F  
PAMPA 2E N/A 52 14 22 NE9 30.16S  
PLAINVIEW 1S N/A 56 19 23 NE13 30.13S  
SILVERTON 7ESE N/A 56 18 22 NE14 30.13F  
TULIA 2ENE N/A 55 16 21 E14 30.13F  
TURKEY 2WSW N/A 60 20 21 NE12 30.13S  
UMBARGER 3NNE N/A 51 15 23 E13 30.15F  

 
 
TXZ033>036-039>041-045>048-242200  
TEXAS TECH WEST TEXAS MESONET/SOUTH PLAINS  
 
CITY SKY/WX TMP DP RH WIND PRES REMARKS
 
AIKEN 3WSW N/A 56 20 24 E10 30.14S  
ANDREWS 2NE N/A 64 25 23 NE5 30.09F  
ANTON 6SSW N/A 58 22 25 NE9 30.11F  
BROWNFIELD 2S N/A 59 25 27 E6 30.10F  
DENVR CTY 7WNW N/A 58 24 27 E5 30.10F  
GAIL 2ESE N/A 64 29 27 NE12 30.09F  
LAMESA 2SE N/A 61 27 27 E5 30.10F  
LUBBOCK 3WNW N/A 58 24 26 E9 30.12F  
MORTON 1ENE N/A 58 18 21 SE12 30.11F  
ODONNELL 1N N/A 60 27 28 E10 30.10F  
PLAINS 3N N/A 58 24 26 SE8 30.11F  
RALLS 1SE N/A 57 21 24 NE10 30.12S  
REESE CENTER N/A 58 22 25 E13 30.11F  
SEAGRAVES 1SW N/A 60 27 28 E5 30.10F  
SEMINOLE 2NNE N/A 60 26 27 SE7 30.10F  
SLATON 2NE N/A 59 23 25 E10G25 30.11F  
SNYDER 3E N/A 63 31 30 NE12 30.09S  
SUNDOWN 8SW N/A 59 21 23 SE7 30.11F  
TAHOKA 3NNE N/A 59 25 27 NE8 30.10F  
WOLFFORTH 6SSW N/A 59 24 25 SE7 30.11F  

 
 
TXZ031-032-036>038-042>044-242200-  
TEXAS TECH WEST TEXAS MESONET/ROLLING PLAINS  
 
CITY SKY/WX TMP DP RH WIND PRES REMARKS
 
ASPERMONT 3NE N/A 63 31 30 N13 30.09F  
FLUVANNA 3WNW N/A 61 28 29 NE14 30.10S  
GRAHAM 5SSW N/A 60 25 26 NE13G23 30.10F  
GUTHRIE 10WSW N/A 61 25 25 N15 30.11S  
HASKELL 1NW N/A 62 32 32 N17 30.09F  
JAYTON 1SSE N/A 61 29 29 NE14 30.10F  
KNOX CITY 3NW N/A 62 30 30 N14 30.10S  
LK A HENRY 1NW N/A 62 27 26 NE15 30.10S  
NORTHFIELD 1S N/A 62 20 20 N13 30.13F  
ODELL 4ENE N/A 61 27 27 N18 30.13S  
PADUCAH 10SW N/A 61 24 24 NE13 30.11F  
POST 1NE N/A 62 25 24 E13 30.10F  
RRING SPRGS 3N N/A 58 22 25 NE10 30.13F  
SEYMOUR 3NW N/A 62 32 32 N17 30.10S  
SPUR 1W N/A 60 26 26 NE13 30.10F  
WEINERT 2NNE N/A 61 31 32 N21 30.11R  
WHITE RVR 6NE N/A 60 23 23 NE10 30.10F  

 
 
TXZ052-054-060>062-072-078-127-140-154-169-242200-  
TEXAS TECH WEST TEXAS MESONET/PERMIAN BASIN/  
CONCHO VALLEY/BIG COUNTRY/EDWARDS PLATEAU  
 
CITY SKY/WX TMP DP RH WIND PRES REMARKS
 
COYANOSA 2N N/A 67 25 20 CALM 30.09F  
JUNCTION 1SSW N/A 78 52 40 CALM 30.02S  
MERTZON 3NNE N/A 70 33 25 CALM 30.07F  
SAN ANGELO 7NW N/A 70 35 27 NW3 30.06S  
STRLNG CT 4WSW N/A 67 31 25 NW8 30.09S  
ST LAWRNCE 5SW N/A 67 28 23 CALM 30.08F  
SWEETWATR 11SW N/A 63 32 30 NE12 30.10R  
WALL 1E N/A 69 35 27 N13 30.07F  

 
 
TXZ055-058-074-075-080-082-242200-  
TEXAS TECH WEST TEXAS MESONET/FAR WEST/SOUTHWEST MOUNTAINS/TRANS PECOS  
 
CITY SKY/WX TMP DP RH WIND PRES REMARKS
 
PRSMN GAP BBNP N/A 84 19 9 S6 30.00F  
GUADLPE MTN NP N/A 57 17 21 E9 30.11F  

 
 
 
CLICK HERE TO GO TO PREVIOUS BULLETINS.

The Nexlab TX Page Main Text Page